TimeEDT,TemperatureF,Dew PointF,Humidity,Sea Level PressureIn,VisibilityMPH,Wind Direction,Wind SpeedMPH,Gust SpeedMPH,PrecipitationIn,Events,Conditions,WindDirDegrees,DateUTC
8:15 AM,46.4,41.0,81,30.24,10.0,NE,4.6,-,N/A,,Clear,50,2013-10-09 12:15:00
8:35 AM,46.4,41.0,81,30.24,10.0,ENE,4.6,-,N/A,,Clear,60,2013-10-09 12:35:00
8:55 AM,50.0,42.8,76,30.25,10.0,NE,3.5,-,N/A,,Clear,50,2013-10-09 12:55:00
9:15 AM,51.8,42.8,71,30.25,10.0,East,4.6,-,N/A,,Clear,80,2013-10-09 13:15:00
9:35 AM,53.6,42.8,67,30.25,10.0,Calm,Calm,-,N/A,,Clear,0,2013-10-09 13:35:00
9:55 AM,55.4,42.8,63,30.25,10.0,Variable,4.6,-,N/A,,Clear,0,2013-10-09 13:55:00
10:15 AM,57.2,42.8,59,30.25,10.0,East,6.9,-,N/A,,Clear,100,2013-10-09 14:15:00
10:35 AM,57.2,42.8,59,30.25,10.0,ESE,5.8,-,N/A,,Clear,120,2013-10-09 14:35:00
10:55 AM,60.8,42.8,52,30.25,10.0,SE,3.5,-,N/A,,Clear,140,2013-10-09 14:55:00
11:15 AM,62.6,42.8,48,30.25,10.0,Variable,3.5,-,N/A,,Clear,0,2013-10-09 15:15:00
11:35 AM,62.6,42.8,48,30.24,10.0,Variable,4.6,-,N/A,,Clear,0,2013-10-09 15:35:00
11:55 AM,64.4,42.8,45,30.24,10.0,SSE,4.6,-,N/A,,Clear,160,2013-10-09 15:55:00
12:15 PM,66.2,42.8,43,30.24,10.0,Calm,Calm,-,N/A,,Clear,0,2013-10-09 16:15:00
12:35 PM,66.2,42.8,43,30.23,10.0,Calm,Calm,-,N/A,,Clear,0,2013-10-09 16:35:00
12:55 PM,68.0,42.8,40,30.22,10.0,Calm,Calm,-,N/A,,Clear,0,2013-10-09 16:55:00
1:15 PM,68.0,44.6,43,30.21,10.0,Calm,Calm,-,N/A,,Clear,0,2013-10-09 17:15:00
1:35 PM,71.6,42.8,35,30.20,10.0,Calm,Calm,-,N/A,,Clear,0,2013-10-09 17:35:00
1:55 PM,69.8,44.6,40,30.19,10.0,Variable,3.5,-,N/A,,Clear,0,2013-10-09 17:55:00
2:15 PM,71.6,44.6,38,30.18,9.0,Calm,Calm,-,N/A,,Clear,0,2013-10-09 18:15:00
2:35 PM,69.8,46.4,43,30.17,8.0,Variable,3.5,-,N/A,,Clear,0,2013-10-09 18:35:00
2:55 PM,71.6,48.2,43,30.17,10.0,SW,3.5,-,N/A,,Clear,220,2013-10-09 18:55:00
3:15 PM,71.6,48.2,43,30.16,10.0,NW,4.6,-,N/A,,Clear,320,2013-10-09 19:15:00
3:35 PM,71.6,48.2,43,30.16,10.0,Variable,4.6,-,N/A,,Clear,0,2013-10-09 19:35:00
3:55 PM,71.6,48.2,43,30.16,10.0,Variable,3.5,-,N/A,,Clear,0,2013-10-09 19:55:00
4:15 PM,73.4,48.2,41,30.16,10.0,Variable,6.9,-,N/A,,Clear,0,2013-10-09 20:15:00
4:55 PM,71.6,48.2,43,30.16,10.0,Calm,Calm,-,N/A,,Clear,0,2013-10-09 20:55:00
5:15 PM,71.6,48.2,43,30.15,10.0,WNW,4.6,-,N/A,,Clear,290,2013-10-09 21:15:00
5:35 PM,69.8,48.2,46,30.15,10.0,North,3.5,-,N/A,,Clear,350,2013-10-09 21:35:00
5:55 PM,69.8,48.2,46,30.15,10.0,Calm,Calm,-,N/A,,Clear,0,2013-10-09 21:55:00
6:15 PM,68.0,51.8,56,30.15,10.0,Calm,Calm,-,N/A,,Clear,0,2013-10-09 22:15:00
6:35 PM,62.6,51.8,68,30.15,10.0,Calm,Calm,-,N/A,,Clear,0,2013-10-09 22:35:00
6:55 PM,59.0,50.0,72,30.16,10.0,Calm,Calm,-,N/A,,Clear,0,2013-10-09 22:55:00
7:15 PM,55.4,50.0,82,30.16,10.0,Calm,Calm,-,N/A,,Clear,0,2013-10-09 23:15:00
7:55 PM,53.6,48.2,82,30.17,10.0,Calm,Calm,-,N/A,,Clear,0,2013-10-09 23:55:00
8:15 PM,53.6,48.2,82,30.18,10.0,NE,3.5,-,N/A,,Clear,40,2013-10-10 00:15:00
8:35 PM,51.8,48.2,88,30.18,10.0,Calm,Calm,-,N/A,,Clear,0,2013-10-10 00:35:00
8:55 PM,51.8,46.4,82,30.18,10.0,Calm,Calm,-,N/A,,Clear,0,2013-10-10 00:55:00
9:15 PM,51.8,46.4,82,30.18,10.0,Calm,Calm,-,N/A,,Clear,0,2013-10-10 01:15:00
9:35 PM,48.2,46.4,93,30.18,10.0,Calm,Calm,-,N/A,,Clear,0,2013-10-10 01:35:00
9:55 PM,48.2,46.4,93,30.18,10.0,Calm,Calm,-,N/A,,Clear,0,2013-10-10 01:55:00
10:15 PM,46.4,44.6,93,30.18,10.0,Calm,Calm,-,N/A,,Clear,0,2013-10-10 02:15:00
10:35 PM,46.4,44.6,93,30.19,10.0,Calm,Calm,-,N/A,,Clear,0,2013-10-10 02:35:00
10:55 PM,46.4,46.4,100,30.19,10.0,Calm,Calm,-,N/A,,Clear,0,2013-10-10 02:55:00
11:15 PM,46.4,44.6,93,30.19,10.0,Calm,Calm,-,N/A,,Clear,0,2013-10-10 03:15:00
11:35 PM,46.4,44.6,93,30.18,10.0,Calm,Calm,-,N/A,,Clear,0,2013-10-10 03:35:00
11:55 PM,44.6,44.6,100,30.18,10.0,Calm,Calm,-,N/A,,Clear,0,2013-10-10 03:55:00